Year,Month,Day,Hour,Minute,Value (Times are PST for temperature in C)
2014,05,14,00,00,16.10
2014,05,14,00,01,16.10
2014,05,14,00,02,16.10
2014,05,14,00,03,16.00
2014,05,14,00,04,15.90
2014,05,14,00,05,15.90
2014,05,14,00,06,15.90
2014,05,14,00,07,15.80
2014,05,14,00,08,15.80
2014,05,14,00,09,15.80
2014,05,14,00,10,15.80
2014,05,14,00,11,15.80
2014,05,14,00,12,15.80
2014,05,14,00,13,15.70
2014,05,14,00,14,15.70
2014,05,14,00,15,15.60
2014,05,14,00,16,15.60
2014,05,14,00,17,15.60
2014,05,14,00,18,15.50
2014,05,14,00,19,15.50
2014,05,14,00,20,15.40
2014,05,14,00,21,15.40
2014,05,14,00,22,15.30
2014,05,14,00,23,15.30
2014,05,14,00,24,15.30
2014,05,14,00,25,15.30
2014,05,14,00,26,15.30
2014,05,14,00,27,15.20
2014,05,14,00,28,15.20
2014,05,14,00,29,15.20
2014,05,14,00,30,15.10
2014,05,14,00,31,15.10
2014,05,14,00,32,15.00
2014,05,14,00,33,15.00
2014,05,14,00,34,15.00
2014,05,14,00,35,15.00
2014,05,14,00,36,15.00
2014,05,14,00,37,14.90
2014,05,14,00,38,14.90
2014,05,14,00,39,14.90
2014,05,14,00,40,14.90
2014,05,14,00,41,14.90
2014,05,14,00,42,14.90
2014,05,14,00,43,14.90
2014,05,14,00,44,14.90
2014,05,14,00,45,14.90
2014,05,14,00,46,14.90
2014,05,14,00,47,14.90
2014,05,14,00,48,14.90
2014,05,14,00,49,14.90
2014,05,14,00,50,14.90
2014,05,14,00,51,15.00
2014,05,14,00,52,15.00
2014,05,14,00,53,15.10
2014,05,14,00,54,15.10
2014,05,14,00,55,15.20
2014,05,14,00,56,15.20
2014,05,14,00,57,15.20
2014,05,14,00,58,15.20
2014,05,14,00,59,15.10
2014,05,14,01,00,15.10
2014,05,14,01,01,15.10
2014,05,14,01,02,15.10
2014,05,14,01,03,15.20
2014,05,14,01,04,15.30
2014,05,14,01,05,15.30
2014,05,14,01,06,15.30
2014,05,14,01,07,15.30
2014,05,14,01,08,15.30
2014,05,14,01,09,15.30
2014,05,14,01,10,15.30
2014,05,14,01,11,15.30
2014,05,14,01,12,15.30
2014,05,14,01,13,15.30
2014,05,14,01,14,15.30
2014,05,14,01,15,15.30
2014,05,14,01,16,15.30
2014,05,14,01,17,15.30
2014,05,14,01,18,15.30
2014,05,14,01,19,15.30
2014,05,14,01,20,15.30
2014,05,14,01,21,15.20
2014,05,14,01,22,15.20
2014,05,14,01,23,15.20
2014,05,14,01,24,15.20
2014,05,14,01,25,15.10
2014,05,14,01,26,15.10
2014,05,14,01,27,15.10
2014,05,14,01,28,15.10
2014,05,14,01,29,15.00
2014,05,14,01,30,15.00
2014,05,14,01,31,15.00
2014,05,14,01,32,15.00
2014,05,14,01,33,15.00
2014,05,14,01,34,15.00
2014,05,14,01,35,15.00
2014,05,14,01,36,15.00
2014,05,14,01,37,15.00
2014,05,14,01,38,15.00
2014,05,14,01,39,15.00
2014,05,14,01,40,15.00
2014,05,14,01,41,15.00
2014,05,14,01,42,15.00
2014,05,14,01,43,15.00
2014,05,14,01,44,15.00
2014,05,14,01,45,15.00
2014,05,14,01,46,15.00
2014,05,14,01,47,15.00
2014,05,14,01,48,14.90
2014,05,14,01,49,14.90
2014,05,14,01,50,14.90
2014,05,14,01,51,14.90
2014,05,14,01,52,14.80
2014,05,14,01,53,14.80
2014,05,14,01,54,14.80
2014,05,14,01,55,14.80
2014,05,14,01,56,14.80
2014,05,14,01,57,14.70
2014,05,14,01,58,14.70
2014,05,14,01,59,14.70
2014,05,14,02,00,14.70
2014,05,14,02,01,14.70
2014,05,14,02,02,14.70
2014,05,14,02,03,14.70
2014,05,14,02,04,14.70
2014,05,14,02,05,14.70
2014,05,14,02,06,14.70
2014,05,14,02,07,14.70
2014,05,14,02,08,14.70
2014,05,14,02,09,14.60
2014,05,14,02,10,14.60
2014,05,14,02,11,14.60
2014,05,14,02,12,14.60
2014,05,14,02,13,14.60
2014,05,14,02,14,14.50
2014,05,14,02,15,14.50
2014,05,14,02,16,14.50
2014,05,14,02,17,14.40
2014,05,14,02,18,14.40
2014,05,14,02,19,14.40
2014,05,14,02,20,14.30
2014,05,14,02,21,14.30
2014,05,14,02,22,14.30
2014,05,14,02,23,14.20
2014,05,14,02,24,14.20
2014,05,14,02,25,14.20
2014,05,14,02,26,14.20
2014,05,14,02,27,14.20
2014,05,14,02,28,14.10
2014,05,14,02,29,14.10
2014,05,14,02,30,14.10
2014,05,14,02,31,14.10
2014,05,14,02,32,14.10
2014,05,14,02,33,14.10
2014,05,14,02,34,14.10
2014,05,14,02,35,14.10
2014,05,14,02,36,14.10
2014,05,14,02,37,14.10
2014,05,14,02,38,14.10
2014,05,14,02,39,14.10
2014,05,14,02,40,14.10
2014,05,14,02,41,14.10
2014,05,14,02,42,14.10
2014,05,14,02,43,14.10
2014,05,14,02,44,14.00
2014,05,14,02,45,14.00
2014,05,14,02,46,14.00
2014,05,14,02,47,14.00
2014,05,14,02,48,14.00
2014,05,14,02,49,14.00
2014,05,14,02,50,14.00
2014,05,14,02,51,14.00
2014,05,14,02,52,14.10
2014,05,14,02,53,14.10
2014,05,14,02,54,14.10
2014,05,14,02,55,14.10
2014,05,14,02,56,14.10
2014,05,14,02,57,14.10
2014,05,14,02,58,14.10
2014,05,14,02,59,14.10
2014,05,14,03,00,14.10
2014,05,14,03,01,14.10
2014,05,14,03,02,14.10
2014,05,14,03,03,14.10
2014,05,14,03,04,14.10
2014,05,14,03,05,14.10
2014,05,14,03,06,14.10
2014,05,14,03,07,14.10
2014,05,14,03,08,14.10
2014,05,14,03,09,14.10
2014,05,14,03,10,14.10
2014,05,14,03,11,14.10
2014,05,14,03,12,14.10
2014,05,14,03,13,14.10
2014,05,14,03,14,14.10
2014,05,14,03,15,14.10
2014,05,14,03,16,14.10
2014,05,14,03,17,14.10
2014,05,14,03,18,14.10
2014,05,14,03,19,14.10
2014,05,14,03,20,14.10
2014,05,14,03,21,14.10
2014,05,14,03,22,14.10
2014,05,14,03,23,14.00
2014,05,14,03,24,14.00
2014,05,14,03,25,14.00
2014,05,14,03,26,14.00
2014,05,14,03,27,13.90
2014,05,14,03,28,13.90
2014,05,14,03,29,13.90
2014,05,14,03,30,13.80
2014,05,14,03,31,13.80
2014,05,14,03,32,13.70
2014,05,14,03,33,13.70
2014,05,14,03,34,13.70
2014,05,14,03,35,13.70
2014,05,14,03,36,13.70
2014,05,14,03,37,13.70
2014,05,14,03,38,13.70
2014,05,14,03,39,13.60
2014,05,14,03,40,13.60
2014,05,14,03,41,13.60
2014,05,14,03,42,13.60
2014,05,14,03,43,13.60
2014,05,14,03,44,13.60
2014,05,14,03,45,13.50
2014,05,14,03,46,13.50
2014,05,14,03,47,13.50
2014,05,14,03,48,13.50
2014,05,14,03,49,13.50
2014,05,14,03,50,13.50
2014,05,14,03,51,13.50
2014,05,14,03,52,13.50
2014,05,14,03,53,13.40
2014,05,14,03,54,13.40
2014,05,14,03,55,13.40
2014,05,14,03,56,13.40
2014,05,14,03,57,13.40
2014,05,14,03,58,13.30
2014,05,14,03,59,13.30
2014,05,14,04,00,13.30
2014,05,14,04,01,13.30
2014,05,14,04,02,13.30
2014,05,14,04,03,13.30
2014,05,14,04,04,13.30
2014,05,14,04,05,13.30
2014,05,14,04,06,13.30
2014,05,14,04,07,13.30
2014,05,14,04,08,13.30
2014,05,14,04,09,13.30
2014,05,14,04,10,13.30
2014,05,14,04,11,13.30
2014,05,14,04,12,13.30
2014,05,14,04,13,13.30
2014,05,14,04,14,13.20
2014,05,14,04,15,13.20
2014,05,14,04,16,13.20
2014,05,14,04,17,13.20
2014,05,14,04,18,13.20
2014,05,14,04,19,13.20
2014,05,14,04,20,13.20
2014,05,14,04,21,13.20
2014,05,14,04,22,13.20
2014,05,14,04,23,13.20
2014,05,14,04,24,13.30
2014,05,14,04,25,13.20
2014,05,14,04,26,13.20
2014,05,14,04,27,13.20
2014,05,14,04,28,13.20
2014,05,14,04,29,13.20
2014,05,14,04,30,13.10
2014,05,14,04,31,13.10
2014,05,14,04,32,13.10
2014,05,14,04,33,13.10
2014,05,14,04,34,13.10
2014,05,14,04,35,13.00
2014,05,14,04,36,13.00
2014,05,14,04,37,13.00
2014,05,14,04,38,13.00
2014,05,14,04,39,13.00
2014,05,14,04,40,13.00
2014,05,14,04,41,12.90
2014,05,14,04,42,12.90
2014,05,14,04,43,12.90
2014,05,14,04,44,12.90
2014,05,14,04,45,12.80
2014,05,14,04,46,12.80
2014,05,14,04,47,12.80
2014,05,14,04,48,12.80
2014,05,14,04,49,12.80
2014,05,14,04,50,12.80
2014,05,14,04,51,12.80
2014,05,14,04,52,12.80
2014,05,14,04,53,12.80
2014,05,14,04,54,12.80
2014,05,14,04,55,12.70
2014,05,14,04,56,12.70
2014,05,14,04,57,12.70
2014,05,14,04,58,12.70
2014,05,14,04,59,12.70
2014,05,14,05,00,12.60
2014,05,14,05,01,12.60
2014,05,14,05,02,12.60
2014,05,14,05,03,12.60
2014,05,14,05,04,12.60
2014,05,14,05,05,12.60
2014,05,14,05,06,12.60
2014,05,14,05,07,12.50
2014,05,14,05,08,12.50
2014,05,14,05,09,12.50
2014,05,14,05,10,12.50
2014,05,14,05,11,12.40
2014,05,14,05,12,12.40
2014,05,14,05,13,12.40
2014,05,14,05,14,12.40
2014,05,14,05,15,12.30
2014,05,14,05,16,12.30
2014,05,14,05,17,12.30
2014,05,14,05,18,12.30
2014,05,14,05,19,12.30
2014,05,14,05,20,12.30
2014,05,14,05,21,12.30
2014,05,14,05,22,12.40
2014,05,14,05,23,12.50
2014,05,14,05,24,12.50
2014,05,14,05,25,12.40
2014,05,14,05,26,12.40
2014,05,14,05,27,12.40
2014,05,14,05,28,12.40
2014,05,14,05,29,12.40
2014,05,14,05,30,12.40
2014,05,14,05,31,12.30
2014,05,14,05,32,12.30
2014,05,14,05,33,12.30
2014,05,14,05,34,12.30
2014,05,14,05,35,12.30
2014,05,14,05,36,12.30
2014,05,14,05,37,12.30
2014,05,14,05,38,12.30
2014,05,14,05,39,12.30
2014,05,14,05,40,12.30
2014,05,14,05,41,12.30
2014,05,14,05,42,12.30
2014,05,14,05,43,12.30
2014,05,14,05,44,12.30
2014,05,14,05,45,12.30
2014,05,14,05,46,12.30
2014,05,14,05,47,12.30
2014,05,14,05,48,12.30
2014,05,14,05,49,12.30
2014,05,14,05,50,12.30
2014,05,14,05,51,12.30
2014,05,14,05,52,12.20
2014,05,14,05,53,12.20
2014,05,14,05,54,12.20
2014,05,14,05,55,12.20
2014,05,14,05,56,12.20
2014,05,14,05,57,12.20
2014,05,14,05,58,12.10
2014,05,14,05,59,12.10
2014,05,14,06,00,12.10
2014,05,14,06,01,12.10
2014,05,14,06,02,12.10
2014,05,14,06,03,12.10
2014,05,14,06,04,12.10
2014,05,14,06,05,12.10
2014,05,14,06,06,12.10
2014,05,14,06,07,12.10
2014,05,14,06,08,12.10
2014,05,14,06,09,12.10
2014,05,14,06,10,12.10
2014,05,14,06,11,12.10
2014,05,14,06,12,12.10
2014,05,14,06,13,12.10
2014,05,14,06,14,12.10
2014,05,14,06,15,12.10
2014,05,14,06,16,12.10
2014,05,14,06,17,12.10
2014,05,14,06,18,12.10
2014,05,14,06,19,12.10
2014,05,14,06,20,12.10
2014,05,14,06,21,12.10
2014,05,14,06,22,12.10
2014,05,14,06,23,12.20
2014,05,14,06,24,12.20
2014,05,14,06,25,12.20
2014,05,14,06,26,12.20
2014,05,14,06,27,12.20
2014,05,14,06,28,12.20
2014,05,14,06,29,12.30
2014,05,14,06,30,12.30
2014,05,14,06,31,12.30
2014,05,14,06,32,12.30
2014,05,14,06,33,12.30
2014,05,14,06,34,12.30
2014,05,14,06,35,12.30
2014,05,14,06,36,12.30
2014,05,14,06,37,12.40
2014,05,14,06,38,12.40
2014,05,14,06,39,12.40
2014,05,14,06,40,12.40
2014,05,14,06,41,12.40
2014,05,14,06,42,12.50
2014,05,14,06,43,12.50
2014,05,14,06,44,12.50
2014,05,14,06,45,12.50
2014,05,14,06,46,12.50
2014,05,14,06,47,12.60
2014,05,14,06,48,12.60
2014,05,14,06,49,12.60
2014,05,14,06,50,12.70
2014,05,14,06,51,12.70
2014,05,14,06,52,12.70
2014,05,14,06,53,12.80
2014,05,14,06,54,12.80
2014,05,14,06,55,12.80
2014,05,14,06,56,12.80
2014,05,14,06,57,12.90
2014,05,14,06,58,12.90
2014,05,14,06,59,13.00
2014,05,14,07,00,13.10
2014,05,14,07,01,13.20
2014,05,14,07,02,13.20
2014,05,14,07,03,13.30
2014,05,14,07,04,13.30
2014,05,14,07,05,13.40
2014,05,14,07,06,13.40
2014,05,14,07,07,13.50
2014,05,14,07,08,13.50
2014,05,14,07,09,13.60
2014,05,14,07,10,13.60
2014,05,14,07,11,13.70
2014,05,14,07,12,13.70
2014,05,14,07,13,13.70
2014,05,14,07,14,13.80
2014,05,14,07,15,13.80
2014,05,14,07,16,13.80
2014,05,14,07,17,13.90
2014,05,14,07,18,13.90
2014,05,14,07,19,13.90
2014,05,14,07,20,14.00
2014,05,14,07,21,14.00
2014,05,14,07,22,14.00
2014,05,14,07,23,14.10
2014,05,14,07,24,14.10
2014,05,14,07,25,14.20
2014,05,14,07,26,14.20
2014,05,14,07,27,14.20
2014,05,14,07,28,14.30
2014,05,14,07,29,14.40
2014,05,14,07,30,14.50
2014,05,14,07,31,14.50
2014,05,14,07,32,14.60
2014,05,14,07,33,14.60
2014,05,14,07,34,14.70
2014,05,14,07,35,14.70
2014,05,14,07,36,14.80
2014,05,14,07,37,14.80
2014,05,14,07,38,14.90
2014,05,14,07,39,14.90
2014,05,14,07,40,15.00
2014,05,14,07,41,15.00
2014,05,14,07,42,15.10
2014,05,14,07,43,15.20
2014,05,14,07,44,15.20
2014,05,14,07,45,15.30
2014,05,14,07,46,15.30
2014,05,14,07,47,15.40
2014,05,14,07,48,15.40
2014,05,14,07,49,15.50
2014,05,14,07,50,15.50
2014,05,14,07,51,15.60
2014,05,14,07,52,15.60
2014,05,14,07,53,15.70
2014,05,14,07,54,15.70
2014,05,14,07,55,15.80
2014,05,14,07,56,15.80
2014,05,14,07,57,15.90
2014,05,14,07,58,16.00
2014,05,14,07,59,16.10
2014,05,14,08,00,16.10
2014,05,14,08,01,16.10
2014,05,14,08,02,16.20
2014,05,14,08,03,16.20
2014,05,14,08,04,16.20
2014,05,14,08,05,16.30
2014,05,14,08,06,16.30
2014,05,14,08,07,16.30
2014,05,14,08,08,16.40
2014,05,14,08,09,16.40
2014,05,14,08,10,16.40
2014,05,14,08,11,16.40
2014,05,14,08,12,16.40
2014,05,14,08,13,16.50
2014,05,14,08,14,16.60
2014,05,14,08,15,16.70
2014,05,14,08,16,16.70
2014,05,14,08,17,16.70
2014,05,14,08,18,16.80
2014,05,14,08,19,16.90
2014,05,14,08,20,16.90
2014,05,14,08,21,17.00
2014,05,14,08,22,17.00
2014,05,14,08,23,17.10
2014,05,14,08,24,17.10
2014,05,14,08,25,17.20
2014,05,14,08,26,17.30
2014,05,14,08,27,17.40
2014,05,14,08,28,17.50
2014,05,14,08,29,17.50
2014,05,14,08,30,17.60
2014,05,14,08,31,17.70
2014,05,14,08,32,17.70
2014,05,14,08,33,17.80
2014,05,14,08,34,17.80
2014,05,14,08,35,17.90
2014,05,14,08,36,17.90
2014,05,14,08,37,17.90
2014,05,14,08,38,17.90
2014,05,14,08,39,18.00
2014,05,14,08,40,18.10
2014,05,14,08,41,18.20
2014,05,14,08,42,18.20
2014,05,14,08,43,18.20
2014,05,14,08,44,18.20
2014,05,14,08,45,18.20
2014,05,14,08,46,18.30
2014,05,14,08,47,18.30
2014,05,14,08,48,18.40
2014,05,14,08,49,18.40
2014,05,14,08,50,18.50
2014,05,14,08,51,18.50
2014,05,14,08,52,18.60
2014,05,14,08,53,18.60
2014,05,14,08,54,18.70
2014,05,14,08,55,18.80
2014,05,14,08,56,18.90
2014,05,14,08,57,18.90
2014,05,14,08,58,18.90
2014,05,14,08,59,18.90
2014,05,14,09,00,19.00
2014,05,14,09,01,19.10
2014,05,14,09,02,19.10
2014,05,14,09,03,19.10
2014,05,14,09,04,19.10
2014,05,14,09,05,19.10
2014,05,14,09,06,19.10
2014,05,14,09,07,19.10
2014,05,14,09,08,19.10
2014,05,14,09,09,19.10
2014,05,14,09,10,19.10
2014,05,14,09,11,19.00
2014,05,14,09,12,18.90
2014,05,14,09,13,18.90
2014,05,14,09,14,18.90
2014,05,14,09,15,18.90
2014,05,14,09,16,19.00
2014,05,14,09,17,19.10
2014,05,14,09,18,19.10
2014,05,14,09,19,19.20
2014,05,14,09,20,19.20
2014,05,14,09,21,19.30
2014,05,14,09,22,19.30
2014,05,14,09,23,19.30
2014,05,14,09,24,19.30
2014,05,14,09,25,19.40
2014,05,14,09,26,19.40
2014,05,14,09,27,19.40
2014,05,14,09,28,19.40
2014,05,14,09,29,19.40
2014,05,14,09,30,19.40
2014,05,14,09,31,19.40
2014,05,14,09,32,19.50
2014,05,14,09,33,19.50
2014,05,14,09,34,19.60
2014,05,14,09,35,19.60
2014,05,14,09,36,19.60
2014,05,14,09,37,19.60
2014,05,14,09,38,19.60
2014,05,14,09,39,19.70
2014,05,14,09,40,19.70
2014,05,14,09,41,19.70
2014,05,14,09,42,19.70
2014,05,14,09,43,19.70
2014,05,14,09,44,19.70
2014,05,14,09,45,19.80
2014,05,14,09,46,19.90
2014,05,14,09,47,19.90
2014,05,14,09,48,19.90
2014,05,14,09,49,19.90
2014,05,14,09,50,19.90
2014,05,14,09,51,19.90
2014,05,14,09,52,19.90
2014,05,14,09,53,19.90
2014,05,14,09,54,19.90
2014,05,14,09,55,19.90
2014,05,14,09,56,19.90
2014,05,14,09,57,19.90
2014,05,14,09,58,20.00
2014,05,14,09,59,20.10
2014,05,14,10,00,20.10
2014,05,14,10,01,20.00
2014,05,14,10,02,19.90
2014,05,14,10,03,19.90
2014,05,14,10,04,19.90
2014,05,14,10,05,19.90
2014,05,14,10,06,19.90
2014,05,14,10,07,19.90
2014,05,14,10,08,19.90
2014,05,14,10,09,19.90
2014,05,14,10,10,19.90
2014,05,14,10,11,19.90
2014,05,14,10,12,19.90
2014,05,14,10,13,19.90
2014,05,14,10,14,19.90
2014,05,14,10,15,19.90
2014,05,14,10,16,20.00
2014,05,14,10,17,20.10
2014,05,14,10,18,20.10
2014,05,14,10,19,20.10
2014,05,14,10,20,20.10
2014,05,14,10,21,20.20
2014,05,14,10,22,20.20
2014,05,14,10,23,20.20
2014,05,14,10,24,20.20
2014,05,14,10,25,20.20
2014,05,14,10,26,20.30
2014,05,14,10,27,20.40
2014,05,14,10,28,20.50
2014,05,14,10,29,20.60
2014,05,14,10,30,20.70
2014,05,14,10,31,20.70
2014,05,14,10,32,20.70
2014,05,14,10,33,20.80
2014,05,14,10,34,20.80
2014,05,14,10,35,20.80
2014,05,14,10,36,20.90
2014,05,14,10,37,20.90
2014,05,14,10,38,21.00
2014,05,14,10,39,21.00
2014,05,14,10,40,21.00
2014,05,14,10,41,21.00
2014,05,14,10,42,21.10
2014,05,14,10,43,21.10
2014,05,14,10,44,21.10
2014,05,14,10,45,21.10
2014,05,14,10,46,21.20
2014,05,14,10,47,21.30
2014,05,14,10,48,21.30
2014,05,14,10,49,21.30
2014,05,14,10,50,21.30
2014,05,14,10,51,21.30
2014,05,14,10,52,21.40
2014,05,14,10,53,21.40
2014,05,14,10,54,21.40
2014,05,14,10,55,21.60
2014,05,14,10,56,21.60
2014,05,14,10,57,21.60
2014,05,14,10,58,21.60
2014,05,14,10,59,21.60
2014,05,14,11,00,21.60
2014,05,14,11,01,21.60
2014,05,14,11,02,21.60
2014,05,14,11,03,21.50
2014,05,14,11,04,21.60
2014,05,14,11,05,21.60
2014,05,14,11,06,21.60
2014,05,14,11,07,21.60
2014,05,14,11,08,21.70
2014,05,14,11,09,21.60
2014,05,14,11,10,21.60
2014,05,14,11,11,21.60
2014,05,14,11,12,21.50
2014,05,14,11,13,21.50
2014,05,14,11,14,21.60
2014,05,14,11,15,21.60
2014,05,14,11,16,21.60
2014,05,14,11,17,21.60
2014,05,14,11,18,21.60
2014,05,14,11,19,21.60
2014,05,14,11,20,21.70
2014,05,14,11,21,21.70
2014,05,14,11,22,21.60
2014,05,14,11,23,21.60
2014,05,14,11,24,21.60
2014,05,14,11,25,21.60
2014,05,14,11,26,21.70
2014,05,14,11,27,21.70
2014,05,14,11,28,21.70
2014,05,14,11,29,21.80
2014,05,14,11,30,21.80
2014,05,14,11,31,21.70
2014,05,14,11,32,21.80
2014,05,14,11,33,21.80
2014,05,14,11,34,21.80
2014,05,14,11,35,21.80
2014,05,14,11,36,21.80
2014,05,14,11,37,21.80
2014,05,14,11,38,21.80
2014,05,14,11,39,21.80
2014,05,14,11,40,21.80
2014,05,14,11,41,21.80
2014,05,14,11,42,21.80
2014,05,14,11,43,21.80
2014,05,14,11,44,21.80
2014,05,14,11,45,21.80
2014,05,14,11,46,21.80
2014,05,14,11,47,21.80
2014,05,14,11,48,21.80
2014,05,14,11,49,21.90
2014,05,14,11,50,21.90
2014,05,14,11,51,21.90
2014,05,14,11,52,21.90
2014,05,14,11,53,22.00
2014,05,14,11,54,22.00
2014,05,14,11,55,22.00
2014,05,14,11,56,22.10
2014,05,14,11,57,22.20
2014,05,14,11,58,22.20
2014,05,14,11,59,22.10
2014,05,14,12,00,22.10
2014,05,14,12,01,22.20
2014,05,14,12,02,22.20
2014,05,14,12,03,22.20
2014,05,14,12,04,22.20
2014,05,14,12,05,22.20
2014,05,14,12,06,22.20
2014,05,14,12,07,22.20
2014,05,14,12,08,22.20
2014,05,14,12,09,22.20
2014,05,14,12,10,22.20
2014,05,14,12,11,22.30
2014,05,14,12,12,22.50
2014,05,14,12,13,22.60
2014,05,14,12,14,22.60
2014,05,14,12,15,22.50
2014,05,14,12,16,22.30
2014,05,14,12,17,22.20
2014,05,14,12,18,22.30
2014,05,14,12,19,22.30
2014,05,14,12,20,22.40
2014,05,14,12,21,22.50
2014,05,14,12,22,22.40
2014,05,14,12,23,22.30
2014,05,14,12,24,22.20
2014,05,14,12,25,22.30
2014,05,14,12,26,22.30
2014,05,14,12,27,22.40
2014,05,14,12,28,22.50
2014,05,14,12,29,22.50
2014,05,14,12,30,22.60
2014,05,14,12,31,22.60
2014,05,14,12,32,22.60
2014,05,14,12,33,22.60
2014,05,14,12,34,22.60
2014,05,14,12,35,22.60
2014,05,14,12,36,22.60
2014,05,14,12,37,22.70
2014,05,14,12,38,22.80
2014,05,14,12,39,22.70
2014,05,14,12,40,22.70
2014,05,14,12,41,22.70
2014,05,14,12,42,22.70
2014,05,14,12,43,22.70
2014,05,14,12,44,22.70
2014,05,14,12,45,22.70
2014,05,14,12,46,22.70
2014,05,14,12,47,22.70
2014,05,14,12,48,22.70
2014,05,14,12,49,22.70
2014,05,14,12,50,22.60
2014,05,14,12,51,22.60
2014,05,14,12,52,22.70
2014,05,14,12,53,22.70
2014,05,14,12,54,22.80
2014,05,14,12,55,22.90
2014,05,14,12,56,22.90
2014,05,14,12,57,22.90
2014,05,14,12,58,22.80
2014,05,14,12,59,22.70
2014,05,14,13,00,22.70
2014,05,14,13,01,22.60
2014,05,14,13,02,22.60
2014,05,14,13,03,22.60
2014,05,14,13,04,22.60
2014,05,14,13,05,22.60
2014,05,14,13,06,22.70
2014,05,14,13,07,22.70
2014,05,14,13,08,22.70
2014,05,14,13,09,22.70
2014,05,14,13,10,22.70
2014,05,14,13,11,22.70
2014,05,14,13,12,22.70
2014,05,14,13,13,22.60
2014,05,14,13,14,22.60
2014,05,14,13,15,22.60
2014,05,14,13,16,22.60
2014,05,14,13,17,22.60
2014,05,14,13,18,22.60
2014,05,14,13,19,22.60
2014,05,14,13,20,22.70
2014,05,14,13,21,22.70
2014,05,14,13,22,22.70
2014,05,14,13,23,22.70
2014,05,14,13,24,22.80
2014,05,14,13,25,22.90
2014,05,14,13,26,22.90
2014,05,14,13,27,22.90
2014,05,14,13,28,23.00
2014,05,14,13,29,23.10
2014,05,14,13,30,23.10
2014,05,14,13,31,23.20
2014,05,14,13,32,23.20
2014,05,14,13,33,23.10
2014,05,14,13,34,23.10
2014,05,14,13,35,23.20
2014,05,14,13,36,23.20
2014,05,14,13,37,23.30
2014,05,14,13,38,23.30
2014,05,14,13,39,23.30
2014,05,14,13,40,23.30
2014,05,14,13,41,23.30
2014,05,14,13,42,23.40
2014,05,14,13,43,23.40
2014,05,14,13,44,23.40
2014,05,14,13,45,23.40
2014,05,14,13,46,23.60
2014,05,14,13,47,23.60
2014,05,14,13,48,23.70
2014,05,14,13,49,23.70
2014,05,14,13,50,23.70
2014,05,14,13,51,23.70
2014,05,14,13,52,23.70
2014,05,14,13,53,23.70
2014,05,14,13,54,23.70
2014,05,14,13,55,23.70
2014,05,14,13,56,23.80
2014,05,14,13,57,23.90
2014,05,14,13,58,23.90
2014,05,14,13,59,23.90
2014,05,14,14,00,23.90
2014,05,14,14,01,23.90
2014,05,14,14,02,23.80
2014,05,14,14,03,23.70
2014,05,14,14,04,23.80
2014,05,14,14,05,23.90
2014,05,14,14,06,23.90
2014,05,14,14,07,24.10
2014,05,14,14,08,24.10
2014,05,14,14,09,24.10
2014,05,14,14,10,24.10
2014,05,14,14,11,24.10
2014,05,14,14,12,24.10
2014,05,14,14,13,24.10
2014,05,14,14,14,24.10
2014,05,14,14,15,24.10
2014,05,14,14,16,24.10
2014,05,14,14,17,24.10
2014,05,14,14,18,24.10
2014,05,14,14,19,24.10
2014,05,14,14,20,24.10
2014,05,14,14,21,24.10
2014,05,14,14,22,24.10
2014,05,14,14,23,24.10
2014,05,14,14,24,24.10
2014,05,14,14,25,24.10
2014,05,14,14,26,24.10
2014,05,14,14,27,24.10
2014,05,14,14,28,24.10
2014,05,14,14,29,24.20
2014,05,14,14,30,24.30
2014,05,14,14,31,24.40
2014,05,14,14,32,24.40
2014,05,14,14,33,24.40
2014,05,14,14,34,24.40
2014,05,14,14,35,24.30
2014,05,14,14,36,24.30
2014,05,14,14,37,24.30
2014,05,14,14,38,24.30
2014,05,14,14,39,24.30
2014,05,14,14,40,24.30
2014,05,14,14,41,24.40
2014,05,14,14,42,24.30
2014,05,14,14,43,24.30
2014,05,14,14,44,24.30
2014,05,14,14,45,24.30
2014,05,14,14,46,24.30
2014,05,14,14,47,24.40
2014,05,14,14,48,24.40
2014,05,14,14,49,24.40
2014,05,14,14,50,24.30
2014,05,14,14,51,24.40
2014,05,14,14,52,24.40
2014,05,14,14,53,24.50
2014,05,14,14,54,24.50
2014,05,14,14,55,24.60
2014,05,14,14,56,24.70
2014,05,14,14,57,24.70
2014,05,14,14,58,24.70
2014,05,14,14,59,24.80
2014,05,14,15,00,24.80
2014,05,14,15,01,24.80
2014,05,14,15,02,24.90
2014,05,14,15,03,24.90
2014,05,14,15,04,24.80
2014,05,14,15,05,24.80
2014,05,14,15,06,24.70
2014,05,14,15,07,24.70
2014,05,14,15,08,24.70
2014,05,14,15,09,24.70
2014,05,14,15,10,24.80
2014,05,14,15,11,24.90
2014,05,14,15,12,24.90
2014,05,14,15,13,25.00
2014,05,14,15,14,25.00
2014,05,14,15,15,25.00
2014,05,14,15,16,25.00
2014,05,14,15,17,25.00
2014,05,14,15,18,25.00
2014,05,14,15,19,25.00
2014,05,14,15,20,25.00
2014,05,14,15,21,25.10
2014,05,14,15,22,25.10
2014,05,14,15,23,25.10
2014,05,14,15,24,25.10
2014,05,14,15,25,25.10
2014,05,14,15,26,25.00
2014,05,14,15,27,25.10
2014,05,14,15,28,25.20
2014,05,14,15,29,25.30
2014,05,14,15,30,25.40
2014,05,14,15,31,25.40
2014,05,14,15,32,25.50
2014,05,14,15,33,25.50
2014,05,14,15,34,25.50
2014,05,14,15,35,25.60
2014,05,14,15,36,25.60
2014,05,14,15,37,25.60
2014,05,14,15,38,25.60
2014,05,14,15,39,25.70
2014,05,14,15,40,25.80
2014,05,14,15,41,25.90
2014,05,14,15,42,26.00
2014,05,14,15,43,26.00
2014,05,14,15,44,26.00
2014,05,14,15,45,26.00
2014,05,14,15,46,26.10
2014,05,14,15,47,26.20
2014,05,14,15,48,26.20
2014,05,14,15,49,26.30
2014,05,14,15,50,26.30
2014,05,14,15,51,26.40
2014,05,14,15,52,26.50
2014,05,14,15,53,26.50
2014,05,14,15,54,26.30
2014,05,14,15,55,26.10
2014,05,14,15,56,26.00
2014,05,14,15,57,25.90
2014,05,14,15,58,25.90
2014,05,14,15,59,25.80
2014,05,14,16,00,25.80
2014,05,14,16,01,25.90
2014,05,14,16,02,25.90
2014,05,14,16,03,25.90
2014,05,14,16,04,26.00
2014,05,14,16,05,26.00
2014,05,14,16,06,26.00
2014,05,14,16,07,26.00
2014,05,14,16,08,26.00
2014,05,14,16,09,26.00
2014,05,14,16,10,26.10
2014,05,14,16,11,26.10
2014,05,14,16,12,26.20
2014,05,14,16,13,26.20
2014,05,14,16,14,26.20
2014,05,14,16,15,26.20
2014,05,14,16,16,26.10
2014,05,14,16,17,26.10
2014,05,14,16,18,26.10
2014,05,14,16,19,26.10
2014,05,14,16,20,26.00
2014,05,14,16,21,26.00
2014,05,14,16,22,25.90
2014,05,14,16,23,26.00
2014,05,14,16,24,26.10
2014,05,14,16,25,26.10
2014,05,14,16,26,26.20
2014,05,14,16,27,26.30
2014,05,14,16,28,26.30
2014,05,14,16,29,26.30
2014,05,14,16,30,26.40
2014,05,14,16,31,26.40
2014,05,14,16,32,26.40
2014,05,14,16,33,26.40
2014,05,14,16,34,26.50
2014,05,14,16,35,26.60
2014,05,14,16,36,26.60
2014,05,14,16,37,26.60
2014,05,14,16,38,26.60
2014,05,14,16,39,26.60
2014,05,14,16,40,26.60
2014,05,14,16,41,26.60
2014,05,14,16,42,26.60
2014,05,14,16,43,26.60
2014,05,14,16,44,26.60
2014,05,14,16,45,26.60
2014,05,14,16,46,26.60
2014,05,14,16,47,26.40
2014,05,14,16,48,26.40
2014,05,14,16,49,26.30
2014,05,14,16,50,26.20
2014,05,14,16,51,26.20
2014,05,14,16,52,26.10
2014,05,14,16,53,26.00
2014,05,14,16,54,25.90
2014,05,14,16,55,26.00
2014,05,14,16,56,26.10
2014,05,14,16,57,26.10
2014,05,14,16,58,26.10
2014,05,14,16,59,26.10
2014,05,14,17,00,26.10
2014,05,14,17,01,26.10
2014,05,14,17,02,26.10
2014,05,14,17,03,26.10
2014,05,14,17,04,26.10
2014,05,14,17,05,26.20
2014,05,14,17,06,26.20
2014,05,14,17,07,26.20
2014,05,14,17,08,26.20
2014,05,14,17,09,26.10
2014,05,14,17,10,26.00
2014,05,14,17,11,25.90
2014,05,14,17,12,26.00
2014,05,14,17,13,26.00
2014,05,14,17,14,26.10
2014,05,14,17,15,26.20
2014,05,14,17,16,26.30
2014,05,14,17,17,26.30
2014,05,14,17,18,26.30
2014,05,14,17,19,26.40